Location: Newark
(34.6283°N, 36.0776°E)
Time: 18:27:55
(UTC+00:00)

S-56A Canister/Altair - All Passes

Search period start: 16 October 2019 00:00
Search period end: 26 October 2019 00:00
Orbit: 633 x 2499 km, 38.9° (Epoch: 15 October)

Date Brightness Start Highest point End Pass type
(mag) Time Alt. Az. Time Alt. Az. Time Alt. Az.
16 Oct - 00:15:57 10° SW 00:21:55 51° SE 00:30:55 10° ENE visible
16 Oct - 02:18:50 10° W 02:26:33 77° NNW 02:38:30 10° ENE visible
16 Oct - 04:23:03 10° WNW 04:32:53 75° N 04:47:04 10° E daylight
16 Oct - 06:27:38 10° WNW 06:39:34 75° SSW 06:54:42 10° SE daylight
16 Oct - 08:33:44 10° W 08:45:33 36° SW 08:58:24 10° SSE daylight
16 Oct - 23:43:47 10° SSW 23:49:16 43° SE 23:57:16 10° ENE visible
17 Oct - 01:46:19 10° WSW 01:53:28 80° NNW 02:04:40 10° ENE visible
17 Oct - 03:50:22 10° WNW 03:59:31 72° N 04:13:06 10° E daylight
17 Oct - 05:54:45 10° WNW 06:06:04 79° SSW 06:21:04 10° ESE daylight
17 Oct - 08:00:21 10° WNW 08:12:08 39° SW 08:25:29 10° SSE daylight
17 Oct - 10:14:51 10° WSW 10:17:06 10° SW 10:19:21 10° SW daylight
17 Oct - 23:11:42 10° SSW 23:16:42 35° SE 23:23:40 10° ENE visible
18 Oct - 01:13:52 10° WSW 01:20:30 83° NNW 01:30:55 10° ENE visible
18 Oct - 03:17:44 10° W 03:26:14 70° N 03:39:07 10° E visible
18 Oct - 05:21:56 10° WNW 05:32:36 84° SSW 05:47:20 10° ESE daylight
18 Oct - 07:27:07 10° WNW 07:38:42 43° SW 07:52:25 10° SSE daylight
18 Oct - 09:38:09 10° WSW 09:43:52 13° SW 09:49:43 10° SSW daylight
18 Oct - 22:39:44 10° SSW 22:44:11 28° SE 22:50:05 10° E visible
19 Oct - 00:41:27 10° WSW 00:47:37 89° NNW 00:57:13 10° ENE visible
19 Oct - 02:45:09 10° W 02:53:02 69° N 03:05:10 10° E visible
19 Oct - 04:49:12 10° WNW 04:59:12 88° SSW 05:13:32 10° ESE daylight
19 Oct - 06:54:00 10° WNW 07:05:16 47° SW 07:19:13 10° SSE daylight
19 Oct - 09:03:18 10° W 09:10:37 16° SW 09:18:20 10° SSW daylight
19 Oct - 22:07:53 10° S 22:11:43 21° SE 22:16:29 10° E night (unlit)
20 Oct - 00:09:04 10° WSW 00:14:50 84° SSE 00:23:39 10° ENE visible
20 Oct - 02:12:38 10° W 02:19:55 67° N 02:31:15 10° E visible
20 Oct - 04:16:31 10° WNW 04:25:53 87° NNE 04:39:41 10° ESE daylight
20 Oct - 06:21:01 10° WNW 06:31:52 51° SW 06:45:54 10° SE daylight
20 Oct - 08:29:04 10° W 08:37:20 19° SW 08:46:20 10° S daylight
20 Oct - 21:36:14 10° S 21:39:16 16° SE 21:42:47 10° E night (unlit)
20 Oct - 23:36:43 10° WSW 23:42:07 76° SSE 23:50:09 10° ENE visible
21 Oct - 01:40:07 10° W 01:46:53 67° N 01:57:24 10° E visible
21 Oct - 03:43:54 10° WNW 03:52:38 83° NNE 04:05:48 10° ESE daylight
21 Oct - 05:48:07 10° WNW 05:58:29 55° SSW 06:12:27 10° SE daylight
21 Oct - 07:55:14 10° W 08:04:02 22° SW 08:13:58 10° S daylight
21 Oct - 21:05:05 10° SSE 21:06:49 12° SE 21:08:42 10° ESE night (unlit)
21 Oct - 23:04:25 10° SW 23:09:28 66° SSE 23:16:45 10° ENE visible
22 Oct - 01:07:39 10° W 01:13:56 67° N 01:23:38 10° ENE visible
22 Oct - 03:11:22 10° WNW 03:19:27 79° NNE 03:31:53 10° ESE visible
22 Oct - 05:15:20 10° WNW 05:25:10 60° SSW 05:38:56 10° SE daylight
22 Oct - 07:21:40 10° W 07:30:44 24° SW 07:41:22 10° S daylight
22 Oct - 22:32:09 10° SW 22:36:54 56° SSE 22:43:26 10° ENE visible
23 Oct - 00:35:12 10° W 00:41:03 67° N 00:49:58 10° ENE visible
23 Oct - 02:38:51 10° WNW 02:46:20 75° NNE 02:58:00 10° E visible
23 Oct - 04:42:38 10° WNW 04:51:54 64° SSW 05:05:20 10° SE daylight
23 Oct - 06:48:20 10° W 06:57:27 27° SW 07:08:32 10° S daylight
23 Oct - 21:59:54 10° SW 22:04:22 46° SSE 22:10:13 10° ENE night (unlit)
24 Oct - 00:02:46 10° W 00:08:14 69° N 00:16:25 10° ENE visible
24 Oct - 02:06:21 10° WNW 02:13:19 71° NNE 02:24:08 10° E visible
24 Oct - 04:09:59 10° WNW 04:18:42 69° SSW 04:31:41 10° SE daylight
24 Oct - 06:15:10 10° W 06:24:11 30° SW 06:35:34 10° SSE daylight
24 Oct - 21:27:42 10° SSW 21:31:53 37° SE 21:37:03 10° E night (unlit)
24 Oct - 23:30:21 10° W 23:35:29 71° NNW 23:42:59 10° ENE visible
25 Oct - 01:33:55 10° WNW 01:40:22 67° N 01:50:20 10° E visible
25 Oct - 03:37:25 10° WNW 03:45:33 74° SSW 03:57:58 10° ESE daylight
25 Oct - 05:42:09 10° W 05:50:56 33° SW 06:02:28 10° SSE daylight
25 Oct - 20:55:32 10° SSW 20:59:25 29° SE 21:03:56 10° E night (unlit)
25 Oct - 22:57:56 10° WSW 23:02:49 76° NNW 23:09:40 10° ENE visible
